Home   Weather   Horsham   Past weeks

Flag for United Kingdom Past Weather in Horsham, England, United Kingdom — Yesterday and Last 2 Weeks

Now
52 °F

Fog.


Feels Like: 49 °F
Forecast: 49 / 54 °F
Wind: 7 mph from Southwest

Location: London / Gatwick Airport

Current Time: Dec 10, 2016 at 6:56:45 am

Latest Report: Dec 10, 2016 at 6:20 am


Visibility: 1 mi

Pressure: 30.18 "Hg

Humidity: 100%

Dew Point: 52 °F

Location of HorshamLocation

Past Weather in Horsham — Graph

°F

Horsham Temperature Yesterday

Maximum temperature yesterday: 57 °F (at 1:50 pm)
Minimum temperature yesterday: 50 °F (at 5:20 pm)
Average temperature yesterday: 52 °F

High & Low Weather Summary for the Past Weeks

 TemperatureHumidityPressure
High57 °F (Dec 9, 1:50 pm)100% (Nov 25, 11:50 pm)30.57 "Hg (Nov 25, 11:50 pm)
Low18 °F (Nov 30, 7:50 am)40% (Nov 30, 1:50 pm)30.09 "Hg (Nov 25, 1:50 pm)
Average41 °F85%30.30 "Hg
* Reported Nov 25 5:20 am — Dec 10 5:50 am, Horsham, Weather by CustomWeather, © 2016

Note: Actual official high and low records may vary slightly from our data, if they occured in-between our weather recording intervals... More about our weather records

Advertising

Horsham Weather History for the Previous 24 Hours

Scroll right to see more
 ConditionsComfort  
Time TempWeatherWind HumidityBarometerVisibility
5:50 am
Sat, Dec 10
52 °FFog.8 mph100%30.18 "Hg1 mi
5:20 am52 °FFog.8 mph100%30.18 "Hg2 mi
4:50 am52 °FDrizzle. Fog.8 mph100%30.18 "Hg1 mi
4:20 am52 °FLow clouds.9 mph94%30.18 "Hg3 mi
3:50 am52 °FLow clouds.6 mph94%30.18 "Hg3 mi
3:20 am52 °FLow clouds.8 mph94%30.18 "Hg3 mi
2:50 am52 °FPassing clouds.9 mph94%30.21 "Hg3 mi
2:20 am52 °FPassing clouds.8 mph94%30.21 "Hg3 mi
1:50 am52 °FPassing clouds.8 mph94%30.21 "Hg3 mi
1:20 am52 °FPassing clouds.8 mph94%30.21 "Hg3 mi
12:50 am50 °FPassing clouds.7 mph94%30.21 "Hg4 mi
12:20 am50 °FPassing clouds.6 mph94%30.21 "Hg4 mi
11:50 pm
Fri, Dec 9
50 °FPassing clouds.7 mph94%30.24 "Hg4 mi
11:20 pm50 °FPassing clouds.5 mph94%30.24 "Hg4 mi
10:50 pm50 °FPassing clouds.5 mph94%30.24 "Hg4 mi
10:20 pm52 °FPassing clouds.7 mph88%30.24 "Hg4 mi
9:50 pm52 °FPassing clouds.8 mph94%30.24 "Hg2 mi
9:20 pm52 °FPassing clouds.7 mph94%30.24 "Hg2 mi
8:50 pm52 °FPassing clouds.8 mph94%30.24 "Hg2 mi
8:20 pm52 °FFog.8 mph94%30.24 "Hg2 mi
7:50 pm50 °FFog.7 mph100%30.27 "Hg2 mi
7:20 pm50 °FFog.7 mph100%30.27 "Hg2 mi
6:50 pm50 °FFog.8 mph94%30.27 "Hg1 mi
6:20 pm50 °FFog.8 mph94%30.27 "Hg1 mi
5:50 pm50 °FFog.9 mph94%30.27 "Hg1 mi
5:20 pm50 °FHaze.5 mph94%30.27 "Hg3 mi
4:50 pm52 °FClear.7 mph94%30.27 "Hg4 mi
4:20 pm52 °FClear.6 mph94%30.27 "Hg6 mi
3:50 pm54 °FPassing clouds.5 mph88%30.27 "HgN/A
3:20 pm54 °FPassing clouds.6 mph88%30.27 "HgN/A
2:50 pm55 °FPassing clouds.9 mph88%30.30 "HgN/A
2:20 pm57 °FPassing clouds.7 mph82%30.30 "HgN/A
1:50 pm57 °FSunny.9 mph82%30.30 "Hg10 mi
1:20 pm55 °FClear.8 mph88%30.30 "Hg6 mi
12:50 pm55 °FPassing clouds.8 mph88%30.30 "Hg5 mi
12:20 pm55 °FPartly sunny.8 mph88%30.30 "Hg4 mi
11:50 am54 °FPartly sunny.7 mph94%30.33 "Hg3 mi
11:20 am54 °FPartly sunny.9 mph94%30.33 "Hg3 mi
10:50 am54 °FLow clouds.8 mph94%30.33 "Hg2 mi
10:20 am54 °FLow clouds.8 mph94%30.33 "Hg2 mi
9:50 am54 °FFog.8 mph94%30.33 "Hg2 mi
9:20 am52 °FFog.9 mph100%30.33 "Hg2 mi
8:50 am52 °FFog.9 mph100%30.33 "Hg2 mi
8:20 am52 °FFog.8 mph100%30.33 "Hg1 mi
7:50 am52 °FFog.8 mph100%30.30 "Hg1 mi
7:20 am52 °FFog.8 mph100%30.30 "Hg1 mi
6:50 am52 °FFog.9 mph100%30.30 "Hg1 mi
6:20 am52 °FFog.12 mph100%30.30 "Hg1 mi
Weather by CustomWeather, © 2016

See weather overviewHow to use our weather pages